Regional Weather Roundup
Issued by NWS Green Bay, WI

Home | Current Version | Previous Version | Text Only | Print | Product List | Glossary On
Versions: 1 2 3 4 5 6 7 8 9 10 11 12 13 14 15 16 17 18 19 20 21 22 23 24 25 26 27 28 29 30 31 32 33 34 35 36 37 38 39 40 41 42 43 44 45 46 47 48 49 50
242
ASUS43 KGRB 230200
RWRGRB

NORTH-CENTRAL AND NORTHEAST WISCONSIN REGIONAL WEATHER ROUNDUP
NATIONAL WEATHER SERVICE GREEN BAY WI
800 PM CST WED FEB 22 2017

WIZ005-009-010>012-018-019-230300-
NORTH CENTRAL WISCONSIN

CITY           SKY/WX    TMP DP  RH WIND       PRES   REMARKS
IRONWOOD       LGT RAIN  36  34  92 NE3       29.64R
MANITOWISH WTR NOT AVBL
ARBOR VITAE    NOT AVBL
EAGLE RIVER    NOT AVBL
LAND O LAKES   NOT AVBL
RHINELANDER    PTCLDY    43  42  97 N5        29.55F
PHILLIPS       NOT AVBL
ANTIGO         NOT AVBL
TOMAHAWK       NOT AVBL
MERRILL        NOT AVBL
$$

WIZ013-073-230300-
NORTHEAST WISCONSIN

CITY           SKY/WX    TMP DP  RH WIND       PRES   REMARKS
IRON MOUNTAIN  RAIN      42  39  89 CALM      29.57R FOG
MARINETTE      MOCLDY    39  38  96 N7        29.56F FOG
$$

WIZ017-030-035>037-045-230300-
CENTRAL WISCONSIN

CITY           SKY/WX    TMP DP  RH WIND       PRES   REMARKS
MEDFORD        NOT AVBL
WAUSAU         PTCLDY    44  38  79 CALM      29.52F
MOSINEE        CLEAR     43  39  87 CALM      29.55S
MARSHFIELD     CLEAR     42  38  85 SW3       29.53S
WISC RAPIDS    CLEAR     40  36  86 CALM      29.55F
STEVENS POINT  NOT AVBL
WAUPACA        CLEAR     51  38  59 W3        29.55R
SHAWANO        NOT AVBL
CLINTONVILLE   MOCLDY    45  36  70 CALM      29.54R
WAUTOMA        CLEAR     42  37  82 CALM      29.55R
$$

WIZ038-039-048-051-230300-
FOX VALLEY

CITY           SKY/WX    TMP DP  RH WIND       PRES   REMARKS
NWS GREEN BAY  PTCLDY    45  42  89 NE5       29.53F
APPLETON       MOCLDY    52  39  62 VRB5      29.52F
OSHKOSH        PTCLDY    52  40  63 VRB3      29.53S
FOND DU LAC    MOCLDY    56  43  61 NE5       29.53S
$$

WIZ022-050-052-230300-
EAST CENTRAL WISCONSIN

CITY           SKY/WX    TMP DP  RH WIND       PRES   REMARKS
EPHRAIM        NOT AVBL
WASHINGTON ISL CLOUDY    38  37  99 N3        29.57R FOG
STURGEON BAY   CLOUDY    40  39  97 E8        29.54F FOG
MANITOWOC      NOT AVBL
SHEBOYGAN      CLEAR     44  41  89 NW3       29.53F
$$

LMZ563-521-522-541>543-230300-
LAKESHORE

STATION/POSITION TIME  TEMP    WIND        PRES    VSBY  WAVE
                       AIR SEA DIR/SP/G                  HT/PER
                 (UTC) (F)     (DEG/KT/KT) (MB)    (MI)  (FT/S)
SHEBOYGAN LKSHOR 0100   47     190/  7/  9 1000.5R
KEWAUNEE LKSHORE 0130   39      30/  5/  6 1000.4R
NORTHPORT PIER   0130   40     200/  6/ 12 1001.7R
SISTER BAY LKSHO 0105   41     160/  9/ 11   N/A
CHAMBERS ISLAND  0140   42      80/  4/  7 1000.7S
MENOMINEE LKSHOR 0130   36      80/  2/  3 1000.3R
$$




USA.gov is the U.S. government's official web portal to all federal, state and local government web resources and services.